Flag for Netherlands Weather past 2 weeks in Zaandam, Netherlands

Now
36 °F

Passing clouds.


Feels Like: 33 °F
Forecast: 31 / 38 °F
Wind: 3 mph from Northwest

Location: Amsterdam Schiphol Airport

Current Time: Dec 26, 2014 at 7:02:47 AM

Latest Report: Dec 26, 2014 at 6:25 AM


Visibility: N/A

Pressure: 30.39 "Hg

Humidity: 93%

Dew point: 34 °F

Location of ZaandamLocation

Historic Weather in Zaandam — Graph

°F

Zaandam temperature yesterday

Maximum temperature yesterday: 46 °F (at 11:55 AM)
Minimum temperature yesterday: 36 °F (at 9:25 PM)
Average temperature yesterday: 42 °F

Past Weeks' High & Low Weather Summary

 TemperatureHumidityPressure
High55 °F (Dec 18, 12:55 PM)100% (Dec 13, 9:55 PM)30.39 "Hg (Dec 13, 9:55 PM)
Low32 °F (Dec 14, 12:55 AM)61% (Dec 11, 4:25 PM)29.27 "Hg (Dec 12, 8:25 AM)
Average46 °F84%29.89 "Hg
* Reported Dec 11 5:25 AM — Dec 26 5:55 AM, Zaandam, Weather by CustomWeather, © 2014

Note: Actual official high and low records may vary slightly from our data, if they occured in-between our weather recording intervals... More about our weather records

Advertising

Zaandam weather history for previous 24 hours

 ConditionsComfort  
Time TempWeatherWind HumidityBarometerVisibility
5:55 AM
Dec 26
36 °FPassing clouds.5 mph87%30.39 "HgN/A
5:25 AM36 °FPassing clouds.2 mph93%30.36 "HgN/A
4:55 AM37 °FPassing clouds.5 mph87%30.39 "HgN/A
4:25 AM37 °FPassing clouds.1 mph87%30.39 "HgN/A
3:55 AM36 °FPassing clouds.3 mph87%30.39 "HgN/A
3:25 AM37 °FPassing clouds.5 mph87%30.36 "HgN/A
2:55 AM37 °FSprinkles. Passing clouds.6 mph87%30.36 "HgN/A
1:55 AM37 °FPassing clouds.7 mph87%30.36 "HgN/A
1:25 AM37 °FPassing clouds.9 mph87%30.36 "HgN/A
12:55 AM37 °FPassing clouds.6 mph87%30.36 "HgN/A
12:25 AM37 °FPassing clouds.6 mph87%30.36 "HgN/A
11:55 PM
Dec 25
37 °FSprinkles. Passing clouds.2 mph87%30.36 "HgN/A
11:25 PM39 °FPassing clouds.6 mph81%30.36 "HgN/A
10:55 PM37 °FPassing clouds.5 mph87%30.36 "HgN/A
10:25 PM36 °FPassing clouds.7 mph93%30.36 "HgN/A
9:55 PM36 °FPassing clouds.9 mph93%30.36 "HgN/A
9:25 PM36 °FPassing clouds.7 mph93%30.33 "HgN/A
8:55 PM37 °FPassing clouds.3 mph87%30.33 "HgN/A
8:25 PM41 °FSprinkles. Passing clouds.10 mph81%30.33 "HgN/A
7:55 PM39 °FPassing clouds.3 mph81%30.33 "HgN/A
7:25 PM39 °FPassing clouds.5 mph93%30.30 "HgN/A
6:55 PM39 °FPassing clouds.8 mph87%30.30 "HgN/A
6:25 PM39 °FPassing clouds.5 mph81%30.30 "HgN/A
5:55 PM37 °FPassing clouds.6 mph87%30.27 "HgN/A
5:25 PM37 °FPassing clouds.5 mph87%30.27 "HgN/A
4:55 PM39 °FPassing clouds.7 mph75%30.27 "HgN/A
4:25 PM39 °FPassing clouds.6 mph81%30.27 "HgN/A
3:55 PM41 °FPassing clouds.8 mph76%30.24 "HgN/A
3:25 PM43 °FPassing clouds.10 mph71%30.24 "HgN/A
2:55 PM45 °FScattered showers. Passing clouds.8 mph76%30.24 "HgN/A
2:25 PM45 °FScattered showers. Passing clouds.12 mph76%30.21 "HgN/A
1:55 PM45 °FScattered showers. Scattered clouds.14 mph76%30.21 "HgN/A
1:25 PM45 °FScattered showers. Passing clouds.14 mph81%30.21 "HgN/A
12:55 PM45 °FScattered showers. Passing clouds.18 mph81%30.21 "HgN/A
12:25 PM45 °FScattered showers. Passing clouds.17 mph76%30.18 "HgN/A
11:55 AM46 °FScattered clouds.16 mph76%30.18 "HgN/A
11:25 AM45 °FPassing clouds.13 mph81%30.18 "HgN/A
10:55 AM45 °FSprinkles. Passing clouds.10 mph81%30.18 "HgN/A
10:25 AM45 °FSprinkles. Passing clouds.10 mph81%30.18 "HgN/A
9:55 AM43 °FScattered showers. Passing clouds.13 mph87%30.15 "HgN/A
9:25 AM43 °FSprinkles. Broken clouds.15 mph87%30.15 "HgN/A
8:55 AM43 °FRain showers. Scattered clouds.22 mph87%30.12 "Hg4 mi
8:25 AM45 °FSprinkles. Passing clouds.20 mph81%30.12 "HgN/A
7:55 AM45 °FPassing clouds.21 mph81%30.12 "HgN/A
7:25 AM45 °FPassing clouds.17 mph81%30.09 "HgN/A
Weather by CustomWeather, © 2014

See weather overviewHow to use our weather pages